Vorticity
-2 6 13 6 -1 4 17 3 4 2 19 -0 -5 11 11 9 11 2 4 8 8 4 2 -3 3 7 9 23 12 6 7 10 14 7 12 8 7 10 5 14 12 7 3 10
4 10 -8 -12 9 6 10 4 15 5 18 -2 0 -5 -4 12 21 -5 8 3 11 3 12 10 6 14 12 9 10 6 3 5 17 10 14 9 3 12 7 11 13 6 10 8
-1 -2 -2 13 13 -12 5 3 1 -5 -1 6 24 14 26 24 13 13 -1 0 2 -5 4 1 5 6 12 17 17 8 4 5 16 10 10 10 6 5 14 9 11 13 11 6
19 -9 7 44 6 30 3 14 19 39 8 5 -9 4 10 14 1 15 13 7 1 -1 19 6 11 10 14 12 13 13 10 8 13 14 10 7 8 10 4 14 5 11 6 16
26 6 14 7 -11 20 -1 12 4 2 9 -2 23 25 -18 18 -2 8 18 7 4 4 2 11 9 7 8 7 10 11 3 12 10 12 13 12 9 13 13 11 11 7 11 7
7 9 1 21 -1 -4 -3 22 17 7 4 28 8 15 43 -2 7 13 20 23 22 12 5 -3 2 5 -3 8 12 8 5 6 10 8 5 11 12 6 11 12 12 17 13 13
9 5 -2 6 0 9 1 -2 10 12 18 -13 -26 31 36 15 8 11 10 21 24 -10 2 -1 -2 11 4 8 9 8 7 5 6 11 6 6 9 11 7 8 15 14 8 10
24 37 24 19 -1 17 3 15 -19 10 4 -15 38 18 12 11 3 12 19 15 17 19 11 -2 -27 -19 19 -8 13 9 12 4 5 6 10 8 5 7 13 6 7 14 17 8
13 -19 70 -9 2 8 1 11 16 40 10 4 27 -4 -38 20 29 13 5 7 -3 0 17 22 3 -21 25 11 16 5 12 14 11 7 9 9 10 8 10 11 4 7 14 15
-6 7 5 31 14 5 12 7 1 3 7 6 10 10 12 0 5 -9 -1 5 5 20 -19 22 23 18 -34 12 -2 10 -6 0 -1 4 11 7 7 9 7 9 11 6 7 17
31 2 -12 -1 -16 17 28 43 14 11 5 7 6 12 33 13 15 24 11 5 -20 4 18 -2 2 11 34 13 -4 -9 1 2 10 2 2 -1 16 8 8 6 10 9 6 9
5 1 -5 13 6 12 -22 0 10 29 10 15 27 16 9 -0 -14 -3 5 6 -1 12 33 -7 17 16 7 40 26 37 -39 1 5 18 -10 2 -4 13 10 9 5 7 9 7
10 12 21 40 34 -24 -23 6 1 14 28 11 11 17 -13 7 9 6 6 9 31 0 4 -1 -0 -12 2 3 18 18 5 2 28 -3 39 1 3 4 10 8 9 7 4 9
26 22 11 5 3 6 12 5 14 -1 14 -1 16 4 1 6 12 15 11 19 10 -4 -2 -3 -7 33 -1 15 8 17 18 7 -1 -28 18 14 5 4 5 11 9 10 8 4
24 -2 -2 -3 -0 3 3 6 0 13 31 13 17 14 14 14 12 9 8 4 4 6 18 10 30 -19 -7 -8 -1 -8 1 6 10 9 -2 -1 2 5 2 5 7 6 10 9
6 6 5 5 8 15 14 7 7 12 15 27 17 9 3 6 5 2 2 2 2 2 5 2 8 12 7 -1 12 7 25 6 16 17 -3 7 4 17 9 11 3 3 5 6
0 7 11 22 8 17 29 31 34 14 20 37 1 17 0 -2 0 4 8 5 3 2 9 14 13 16 19 22 20 11 23 16 3 16 34 7 6 -1 3 17 12 9 6 1
2 4 3 -4 16 16 9 13 6 32 16 17 11 4 3 6 5 0 -0 -0 4 1 1 5 9 7 1 6 25 12 4 10 14 2 5 15 35 27 12 -4 6 -3 11 17
9 10 4 9 4 -12 24 4 -7 -1 -10 -2 5 1 2 4 2 0 1 7 1 2 4 1 1 -1 -2 0 0 2 5 16 21 7 5 7 8 7 14 25 26 17 13 10
13 6 6 3 3 4 15 6 11 6 9 3 -3 0 -0 -2 1 4 5 2 4 5 4 2 3 -2 0 3 11 13 15 8 14 23 22 5 2 8 8 6 6 9 18 21
4 13 -3 18 5 15 8 4 1 21 4 10 10 12 12 11 10 8 2 2 2 6 12 12 13 10 7 11 25 19 15 8 6 4 19 24 14 5 6 10 7 3 7 5
18 5 20 13 11 10 1 9 15 15 -0 1 3 3 3 0 -2 7 12 12 16 6 12 17 16 18 14 20 15 10 6 10 18 13 11 14 14 21 8 7 5 8 3 2
-1 12 11 2 12 -3 4 12 6 5 2 0 1 2 4 9 0 1 16 9 12 9 11 9 11 10 24 12 7 13 13 14 14 14 20 17 12 11 19 16 4 7 9 9
12 4 5 7 8 8 -9 -1 7 11 7 8 10 8 5 10 10 9 19 17 14 15 14 13 6 9 7 11 7 15 14 15 5 12 12 16 13 16 23 29 17 7 6 2
12 11 11 12 13 9 5 9 7 6 -1 -5 -6 -0 12 18 5 5 8 4 9 7 20 14 4 15 15 14 15 15 6 15 10 15 11 23 24 13 7 25 25 11 0 10
11 12 7 11 11 8 6 8 5 7 11 18 17 15 15 6 2 2 3 7 9 5 4 0 6 20 23 11 16 17 12 8 9 11 12 15 17 17 18 25 6 28 7 3
Height
3183 3184 3183 3185 3186 3185 3184 3184 3184 3184 3183 3184 3184 3184 3183 3183 3183 3182 3181 3181 3182 3183 3185 3186 3185 3185 3186 3186 3187 3188 3190 3191 3191 3191 3192 3195 3196 3196 3196 3197 3199 3199 3203 3208
3183 3181 3182 3183 3184 3185 3185 3183 3182 3182 3183 3184 3182 3181 3181 3180 3179 3180 3180 3180 3182 3183 3184 3185 3186 3184 3183 3185 3186 3187 3188 3189 3190 3191 3191 3193 3195 3195 3195 3196 3197 3199 3201 3206
3181 3180 3180 3181 3181 3182 3182 3182 3181 3182 3182 3182 3179 3176 3174 3175 3177 3179 3179 3179 3181 3182 3183 3183 3185 3184 3183 3184 3185 3186 3187 3189 3191 3191 3191 3193 3194 3195 3196 3196 3196 3197 3200 3204
3179 3178 3179 3179 3180 3180 3179 3181 3180 3180 3179 3178 3177 3176 3173 3174 3175 3176 3177 3178 3180 3181 3181 3182 3182 3183 3184 3186 3186 3186 3188 3190 3191 3190 3191 3193 3195 3195 3195 3196 3195 3195 3198 3201
3177 3176 3177 3178 3179 3179 3179 3179 3179 3177 3175 3174 3173 3174 3171 3173 3174 3175 3175 3176 3178 3180 3181 3183 3184 3184 3185 3186 3187 3188 3188 3189 3190 3190 3190 3191 3193 3193 3194 3194 3194 3195 3196 3199
3173 3174 3176 3177 3177 3178 3178 3178 3178 3175 3173 3171 3171 3172 3169 3172 3175 3174 3174 3173 3174 3178 3183 3186 3188 3187 3187 3186 3185 3185 3187 3189 3190 3191 3191 3191 3191 3192 3192 3192 3192 3193 3195 3196
3173 3173 3174 3176 3176 3176 3177 3177 3177 3177 3176 3172 3168 3170 3171 3176 3176 3171 3168 3170 3174 3180 3184 3187 3189 3189 3188 3187 3186 3188 3188 3188 3189 3189 3190 3191 3191 3190 3190 3190 3190 3191 3192 3194
3173 3167 3170 3172 3174 3175 3176 3177 3177 3177 3179 3171 3168 3172 3177 3175 3172 3170 3169 3171 3172 3174 3181 3182 3190 3187 3188 3187 3188 3187 3189 3189 3189 3188 3188 3189 3189 3189 3188 3188 3188 3188 3189 3192
3170 3169 3168 3171 3173 3175 3175 3175 3175 3173 3171 3171 3173 3175 3178 3176 3172 3172 3171 3174 3175 3175 3178 3178 3177 3183 3185 3187 3187 3189 3189 3189 3187 3185 3185 3186 3187 3187 3186 3186 3186 3186 3186 3186
3172 3170 3171 3172 3173 3175 3174 3173 3173 3171 3174 3177 3174 3174 3175 3176 3176 3174 3172 3173 3175 3180 3182 3183 3183 3182 3181 3183 3181 3180 3185 3186 3184 3181 3181 3182 3182 3184 3184 3183 3183 3183 3183 3183
3171 3171 3173 3173 3174 3173 3171 3168 3169 3170 3170 3172 3177 3175 3175 3176 3174 3174 3174 3177 3175 3177 3176 3181 3182 3180 3181 3177 3173 3174 3173 3179 3180 3182 3178 3177 3180 3180 3180 3180 3180 3180 3179 3180
3170 3171 3170 3172 3173 3173 3172 3172 3170 3168 3169 3167 3167 3173 3174 3174 3173 3171 3174 3176 3176 3174 3174 3175 3176 3177 3174 3171 3165 3131 3166 3170 3176 3180 3182 3178 3176 3178 3177 3177 3177 3177 3176 3176
3169 3169 3170 3167 3170 3169 3168 3171 3171 3169 3167 3167 3166 3171 3170 3170 3171 3171 3171 3172 3175 3174 3173 3172 3172 3172 3172 3171 3167 3164 3163 3151 3169 3173 3171 3171 3171 3173 3173 3174 3173 3173 3173 3172
3166 3166 3168 3169 3170 3170 3168 3167 3169 3169 3166 3165 3165 3165 3166 3167 3166 3166 3167 3168 3170 3174 3174 3171 3168 3166 3165 3165 3167 3165 3168 3166 3166 3164 3164 3163 3162 3165 3167 3168 3167 3168 3169 3168
3165 3165 3165 3166 3167 3167 3165 3164 3165 3165 3163 3162 3162 3162 3162 3164 3164 3163 3163 3165 3168 3169 3170 3170 3168 3165 3162 3161 3162 3162 3158 3158 3155 3156 3156 3158 3155 3157 3158 3160 3162 3162 3162 3161
3162 3164 3163 3163 3163 3162 3162 3162 3162 3161 3160 3159 3159 3160 3162 3162 3162 3162 3162 3162 3162 3163 3164 3166 3166 3166 3162 3157 3154 3153 3153 3150 3151 3152 3150 3152 3145 3149 3149 3149 3152 3154 3153 3153
3161 3161 3162 3161 3161 3160 3162 3159 3157 3157 3157 3159 3159 3160 3161 3161 3161 3160 3159 3157 3155 3153 3151 3151 3152 3153 3153 3152 3149 3145 3146 3145 3144 3141 3140 3141 3140 3141 3141 3140 3140 3140 3138 3141
3158 3158 3160 3160 3160 3161 3162 3160 3158 3156 3157 3158 3158 3158 3158 3158 3157 3155 3153 3152 3150 3148 3146 3144 3141 3140 3140 3140 3140 3138 3136 3136 3134 3133 3132 3131 3130 3130 3130 3130 3129 3125 3117 3127
3155 3156 3157 3158 3159 3159 3158 3159 3158 3157 3159 3157 3157 3155 3155 3155 3155 3152 3150 3149 3147 3144 3141 3138 3136 3132 3130 3129 3127 3126 3125 3124 3125 3125 3123 3122 3121 3120 3120 3120 3118 3116 3116 3112
3152 3153 3155 3156 3156 3155 3153 3154 3156 3155 3154 3154 3153 3152 3152 3151 3150 3148 3146 3144 3141 3139 3136 3132 3130 3126 3123 3120 3117 3113 3111 3111 3111 3111 3113 3113 3112 3111 3111 3111 3109 3108 3108 3109
3149 3150 3151 3152 3152 3151 3150 3150 3151 3154 3154 3148 3148 3148 3147 3146 3145 3142 3140 3138 3134 3130 3127 3123 3120 3116 3114 3111 3107 3104 3102 3099 3098 3098 3098 3099 3101 3101 3102 3102 3101 3101 3101 3102
3147 3149 3149 3149 3149 3148 3146 3146 3149 3148 3145 3145 3144 3142 3140 3139 3137 3134 3130 3127 3124 3121 3118 3115 3109 3106 3104 3101 3097 3094 3091 3091 3087 3085 3085 3085 3087 3088 3089 3090 3092 3092 3093 3094
3146 3146 3147 3149 3147 3144 3142 3142 3141 3142 3141 3140 3139 3137 3133 3130 3127 3124 3120 3116 3113 3109 3105 3102 3098 3094 3092 3089 3087 3082 3080 3079 3077 3075 3073 3073 3074 3075 3078 3078 3080 3081 3081 3081
3142 3142 3143 3144 3143 3141 3139 3138 3137 3136 3135 3133 3132 3129 3126 3121 3117 3114 3110 3106 3102 3098 3093 3089 3086 3083 3079 3077 3073 3070 3068 3067 3064 3061 3061 3061 3061 3062 3063 3064 3065 3068 3068 3070
3139 3139 3138 3138 3138 3138 3137 3136 3134 3132 3129 3126 3123 3119 3115 3110 3107 3104 3099 3096 3090 3086 3081 3077 3073 3069 3066 3063 3061 3059 3057 3054 3051 3048 3047 3046 3047 3049 3050 3050 3051 3053 3055 3059
3134 3134 3135 3134 3134 3133 3132 3130 3128 3125 3122 3117 3112 3109 3107 3102 3098 3093 3088 3084 3078 3072 3068 3063 3059 3055 3053 3050 3047 3047 3045 3041 3039 3036 3036 3035 3035 3036 3036 3039 3041 3041 3044 3049